Flag for Germany Weather past 2 weeks in Pirna, Saxony, Germany

Now
36 °F

Overcast.


Feels Like: 29 °F
Forecast: 29 / 39 °F
Wind: 8 mph from South

Location: Dresden-Klotzsche

Current Time: Jan 29, 2015 at 10:15:20 PM

Latest Report: Jan 29, 2015 at 9:00 PM


Visibility: 19 mi

Pressure: 29.03 "Hg

Humidity: 77%

Dew point: 29 °F

Location of PirnaLocation

Historic Weather in Pirna — Graph

°F

Pirna temperature yesterday

Maximum temperature yesterday: 40 °F (at 2:00 PM)
Minimum temperature yesterday: 34 °F (at 6:00 AM)
Average temperature yesterday: 37 °F

Past Weeks' High & Low Weather Summary

 TemperatureHumidityPressure
High47 °F (Jan 16, 12:00 AM)100% (Jan 22, 7:00 PM)30.34 "Hg (Jan 22, 7:00 PM)
Low29 °F (Jan 24, 12:00 PM)51% (Jan 16, 12:00 AM)29.03 "Hg (Jan 29, 9:00 PM)
Average35 °F87%29.96 "Hg
* Reported Jan 14 9:00 PM — Jan 29 9:00 PM, Pirna, Weather by CustomWeather, © 2014

Note: Actual official high and low records may vary slightly from our data, if they occured in-between our weather recording intervals... More about our weather records

Advertising

Pirna weather history for previous 24 hours

 ConditionsComfort  
Time TempWeatherWind HumidityBarometerVisibility
9:00 PM
Jan 29
36 °FOvercast.8 mph77%29.03 "Hg19 mi
8:00 PM36 °FOvercast.7 mph73%29.09 "Hg19 mi
7:00 PM35 °FPassing clouds.5 mph74%29.12 "Hg19 mi
6:00 PM36 °FOvercast.5 mph72%29.15 "Hg12 mi
5:00 PM36 °FSnow flurries. Low clouds.8 mph77%29.18 "Hg5 mi
3:00 PM38 °FOvercast.8 mph60%29.23 "Hg22 mi
2:00 PM38 °FOvercast.7 mph58%29.26 "Hg22 mi
1:00 PM39 °FScattered clouds.8 mph54%29.29 "Hg22 mi
12:00 PM38 °FScattered clouds.9 mph59%29.35 "Hg22 mi
11:00 AM37 °FChilly.8 mph63%29.38 "HgN/A
10:00 AM36 °FPassing clouds.8 mph71%29.38 "Hg22 mi
9:00 AM34 °FPartly sunny.6 mph77%29.38 "Hg19 mi
8:00 AM33 °FPassing clouds.7 mph78%29.38 "Hg19 mi
7:00 AM33 °FPassing clouds.7 mph77%29.38 "Hg22 mi
6:00 AM33 °FPassing clouds.6 mph78%29.41 "Hg25 mi
5:00 AM35 °FPassing clouds.7 mph75%29.38 "Hg25 mi
4:00 AM35 °FPassing clouds.8 mph77%29.38 "Hg25 mi
3:00 AM37 °FPassing clouds.8 mph79%29.38 "Hg25 mi
2:00 AM39 °FLight rain. Overcast.10 mph78%29.38 "Hg22 mi
1:00 AM39 °FOvercast.7 mph77%29.35 "Hg22 mi
12:00 AM38 °FLight rain. Overcast.8 mph87%29.38 "Hg19 mi
11:00 PM
Jan 28
36 °FLight rain. Overcast.8 mph91%29.41 "Hg16 mi
10:00 PM37 °FLight rain. Overcast.8 mph80%29.47 "Hg9 mi
Weather by CustomWeather, © 2014

See weather overviewHow to use our weather pages